Location: Newark
(48.8604°N, 2.3376°E)
Time: 02:39:36
(UTC+00:00)

Envisat - Visible Passes

Search period start: 01 October 2020 00:00
Search period end: 11 October 2020 00:00
Orbit: 764 x 766 km, 98.1° (Epoch: 30 September)

Date Brightness Start Highest point End Pass type
(mag) Time Alt. Az. Time Alt. Az. Time Alt. Az.
01 Oct 6.1 04:47:43 10° NE 04:51:19 19° E 04:54:54 10° SE visible
03 Oct 5.2 05:12:30 10° NNE 05:17:01 31° E 05:21:29 10° SSE visible
03 Oct 6.0 18:11:19 10° SW 18:15:06 21° W 18:18:56 10° NW visible
04 Oct 6.2 04:36:49 10° NE 04:39:49 15° E 04:42:46 10° ESE visible
05 Oct 6.5 18:38:45 10° WSW 18:40:54 13° W 18:43:03 10° WNW visible
06 Oct 5.6 05:01:21 10° NE 05:05:33 25° E 05:09:43 10° SSE visible
06 Oct 5.6 17:59:26 10° SSW 18:03:38 26° W 18:07:52 10° NW visible
07 Oct 6.4 04:26:13 10° ENE 04:28:17 12° E 04:30:20 10° ESE visible
08 Oct 4.6 05:26:22 10° NNE 05:31:11 41° E 05:35:58 10° SSE visible
08 Oct 6.3 18:26:21 10° SW 18:29:22 16° W 18:32:25 10° NW visible
09 Oct 5.9 04:50:17 10° NE 04:54:04 21° E 04:57:49 10° SE visible
09 Oct 5.2 17:47:40 10° SSW 17:52:10 31° W 17:56:42 10° NNW visible
